Time,TemperatureF,DewpointF,PressureIn,WindDirection,WindDirectionDegrees,WindSpeedMPH,WindSpeedGustMPH,Humidity,HourlyPrecipIn,Conditions,Clouds,dailyrainin,SoftwareType,DateUTC
2013-05-22 00:02:00,60.8,56.8,29.74,West,270,3.0,5.0,87,0.00,,,0.00,meteohub,2013-05-22 05:02:00,
2013-05-22 00:07:00,61.0,57.0,29.74,SW,225,3.0,3.0,87,0.00,,,0.00,meteohub,2013-05-22 05:07:00,
2013-05-22 00:12:00,60.8,56.8,29.74,SSW,203,3.0,4.0,87,0.00,,,0.00,meteohub,2013-05-22 05:12:00,
2013-05-22 00:17:00,61.0,57.0,29.74,West,270,2.0,4.0,87,0.00,,,0.00,meteohub,2013-05-22 05:17:00,
2013-05-22 00:22:00,60.8,56.8,29.74,South,180,2.0,4.0,87,0.00,,,0.00,meteohub,2013-05-22 05:22:00,
2013-05-22 00:27:00,60.8,56.8,29.74,WSW,248,4.0,4.0,87,0.00,,,0.00,meteohub,2013-05-22 05:27:00,
2013-05-22 00:32:00,60.8,56.8,29.74,SW,225,5.0,5.0,87,0.00,,,0.00,meteohub,2013-05-22 05:32:00,
2013-05-22 00:37:00,60.6,56.7,29.74,West,270,3.0,5.0,87,0.00,,,0.00,meteohub,2013-05-22 05:37:00,
2013-05-22 00:42:00,60.6,56.7,29.75,WSW,248,3.0,5.0,87,0.00,,,0.00,meteohub,2013-05-22 05:42:00,
2013-05-22 00:47:00,60.6,56.7,29.75,SW,225,4.0,5.0,87,0.00,,,0.00,meteohub,2013-05-22 05:47:00,
2013-05-22 00:52:00,60.4,56.5,29.75,WNW,293,2.0,6.0,87,0.00,,,0.00,meteohub,2013-05-22 05:52:00,
2013-05-22 00:56:00,60.4,56.5,29.73,WSW,248,3.0,6.0,87,0.00,,,0.00,meteohub,2013-05-22 05:56:00,
2013-05-22 01:02:00,60.6,56.5,29.73,WSW,248,0.0,6.0,86,0.00,,,0.00,meteohub,2013-05-22 06:02:00,
2013-05-22 01:07:00,60.4,56.3,29.73,SSW,203,0.0,3.0,86,0.00,,,0.00,meteohub,2013-05-22 06:07:00,
2013-05-22 01:12:00,60.4,56.3,29.73,SSW,203,2.0,3.0,86,0.00,,,0.00,meteohub,2013-05-22 06:12:00,
2013-05-22 01:17:00,60.3,56.1,29.73,SW,225,4.0,4.0,86,0.00,,,0.00,meteohub,2013-05-22 06:17:00,
2013-05-22 01:22:00,60.3,56.1,29.73,WSW,248,0.0,4.0,86,0.00,,,0.00,meteohub,2013-05-22 06:22:00,
2013-05-22 01:27:00,60.1,55.9,29.73,WSW,248,4.0,4.0,86,0.00,,,0.00,meteohub,2013-05-22 06:27:00,
2013-05-22 01:32:00,60.1,56.1,29.73,SW,225,0.0,4.0,87,0.00,,,0.00,meteohub,2013-05-22 06:32:00,
2013-05-22 01:37:00,60.1,56.1,29.73,South,180,4.0,4.0,87,0.00,,,0.00,meteohub,2013-05-22 06:37:00,
2013-05-22 01:42:00,59.9,55.9,29.73,SSW,203,4.0,4.0,87,0.00,,,0.00,meteohub,2013-05-22 06:42:00,
2013-05-22 01:47:00,59.9,55.9,29.73,SW,225,1.0,4.0,87,0.00,,,0.00,meteohub,2013-05-22 06:47:00,
2013-05-22 01:52:00,59.7,55.8,29.73,South,180,0.0,4.0,87,0.00,,,0.00,meteohub,2013-05-22 06:52:00,
2013-05-22 01:57:00,59.9,55.9,29.73,WSW,248,1.0,4.0,87,0.00,,,0.00,meteohub,2013-05-22 06:57:00,
2013-05-22 02:02:00,59.9,55.9,29.73,SW,225,0.0,2.0,87,0.00,,,0.00,meteohub,2013-05-22 07:02:00,
2013-05-22 02:07:00,59.9,55.9,29.73,SW,225,0.0,2.0,87,0.00,,,0.00,meteohub,2013-05-22 07:07:00,
2013-05-22 02:12:00,59.5,55.6,29.73,SW,225,2.0,2.0,87,0.00,,,0.00,meteohub,2013-05-22 07:12:00,
2013-05-22 02:17:00,59.5,55.6,29.73,SW,225,0.0,2.0,87,0.00,,,0.00,meteohub,2013-05-22 07:17:00,
2013-05-22 02:22:00,59.5,55.6,29.72,South,180,0.0,2.0,87,0.00,,,0.00,meteohub,2013-05-22 07:22:00,
2013-05-22 02:27:00,59.4,55.4,29.72,SW,225,0.0,2.0,87,0.00,,,0.00,meteohub,2013-05-22 07:27:00,
2013-05-22 02:32:00,59.4,55.4,29.72,SW,225,0.0,0.0,87,0.00,,,0.00,meteohub,2013-05-22 07:32:00,
2013-05-22 02:37:00,59.2,55.4,29.72,SSW,203,0.0,0.0,87,0.00,,,0.00,meteohub,2013-05-22 07:37:00,
2013-05-22 02:42:00,59.2,55.4,29.72,SW,225,0.0,0.0,87,0.00,,,0.00,meteohub,2013-05-22 07:42:00,
2013-05-22 02:47:00,58.8,55.0,29.72,South,180,0.0,0.0,87,0.00,,,0.00,meteohub,2013-05-22 07:47:00,
2013-05-22 02:52:00,58.6,54.9,29.72,SW,225,0.0,0.0,87,0.00,,,0.00,meteohub,2013-05-22 07:52:00,
2013-05-22 02:56:00,58.6,54.9,29.72,WSW,248,0.0,0.0,87,0.00,,,0.00,meteohub,2013-05-22 07:56:00,
2013-05-22 03:02:00,58.5,54.7,29.73,SW,225,0.0,0.0,87,0.00,,,0.00,meteohub,2013-05-22 08:02:00,
2013-05-22 03:07:00,58.1,54.3,29.73,SW,225,1.0,0.0,87,0.00,,,0.00,meteohub,2013-05-22 08:07:00,
2013-05-22 03:12:00,57.9,54.3,29.73,South,180,0.0,1.0,88,0.00,,,0.00,meteohub,2013-05-22 08:12:00,
2013-05-22 03:17:00,57.9,54.3,29.73,South,180,0.0,2.0,88,0.00,,,0.00,meteohub,2013-05-22 08:17:00,
2013-05-22 03:22:00,57.7,54.1,29.73,South,180,0.0,2.0,88,0.00,,,0.00,meteohub,2013-05-22 08:22:00,
2013-05-22 03:27:00,57.7,54.1,29.73,South,180,0.0,2.0,88,0.00,,,0.00,meteohub,2013-05-22 08:27:00,
2013-05-22 03:32:00,57.4,53.8,29.73,South,180,1.0,0.0,88,0.00,,,0.00,meteohub,2013-05-22 08:32:00,
2013-05-22 03:37:00,57.2,54.0,29.73,SW,225,0.0,2.0,89,0.00,,,0.00,meteohub,2013-05-22 08:37:00,
2013-05-22 03:42:00,57.2,54.0,29.73,South,180,0.0,2.0,89,0.00,,,0.00,meteohub,2013-05-22 08:42:00,
2013-05-22 03:47:00,57.4,54.1,29.73,South,180,1.0,2.0,89,0.00,,,0.00,meteohub,2013-05-22 08:47:00,
2013-05-22 03:52:00,57.0,53.8,29.73,WSW,248,0.0,2.0,89,0.00,,,0.00,meteohub,2013-05-22 08:52:00,
2013-05-22 03:57:00,57.0,53.8,29.73,WSW,248,0.0,2.0,89,0.00,,,0.00,meteohub,2013-05-22 08:57:00,
2013-05-22 04:02:00,56.8,53.6,29.74,WSW,248,0.0,1.0,89,0.00,,,0.00,meteohub,2013-05-22 09:02:00,
2013-05-22 04:07:00,56.7,53.4,29.74,SW,225,0.0,0.0,89,0.00,,,0.00,meteohub,2013-05-22 09:07:00,
2013-05-22 04:12:00,56.5,53.2,29.74,South,180,2.0,0.0,89,0.00,,,0.00,meteohub,2013-05-22 09:12:00,
2013-05-22 04:17:00,56.5,53.2,29.73,WSW,248,0.0,2.0,89,0.00,,,0.00,meteohub,2013-05-22 09:17:00,
2013-05-22 04:22:00,56.7,53.4,29.73,SW,225,3.0,3.0,89,0.00,,,0.00,meteohub,2013-05-22 09:22:00,
2013-05-22 04:27:00,56.7,53.4,29.73,South,180,0.0,3.0,89,0.00,,,0.00,meteohub,2013-05-22 09:27:00,
2013-05-22 04:32:00,56.7,53.8,29.73,WSW,248,2.0,3.0,90,0.00,,,0.00,meteohub,2013-05-22 09:32:00,
2013-05-22 04:37:00,56.7,53.8,29.73,South,180,0.0,3.0,90,0.00,,,0.00,meteohub,2013-05-22 09:37:00,
2013-05-22 04:42:00,56.5,53.6,29.73,SSW,203,2.0,2.0,90,0.00,,,0.00,meteohub,2013-05-22 09:42:00,
2013-05-22 04:47:00,56.5,53.6,29.73,SW,225,2.0,2.0,90,0.00,,,0.00,meteohub,2013-05-22 09:47:00,
2013-05-22 04:52:00,56.5,53.6,29.73,South,180,0.0,2.0,90,0.00,,,0.00,meteohub,2013-05-22 09:52:00,
2013-05-22 04:57:00,56.5,53.6,29.74,SW,225,0.0,4.0,90,0.00,,,0.00,meteohub,2013-05-22 09:57:00,
2013-05-22 05:02:00,56.5,53.6,29.74,South,180,0.0,4.0,90,0.00,,,0.00,meteohub,2013-05-22 10:02:00,
2013-05-22 05:07:00,56.3,53.4,29.74,SSE,158,0.0,0.0,90,0.00,,,0.00,meteohub,2013-05-22 10:07:00,
2013-05-22 05:12:00,56.3,53.4,29.74,SSE,158,0.0,0.0,90,0.00,,,0.00,meteohub,2013-05-22 10:12:00,
2013-05-22 05:17:00,55.8,52.9,29.75,SE,135,0.0,0.0,90,0.00,,,0.00,meteohub,2013-05-22 10:17:00,
2013-05-22 05:22:00,55.9,53.1,29.75,SE,135,0.0,1.0,90,0.00,,,0.00,meteohub,2013-05-22 10:22:00,
2013-05-22 05:27:00,55.8,52.9,29.75,SSE,158,0.0,1.0,90,0.00,,,0.00,meteohub,2013-05-22 10:27:00,
2013-05-22 05:32:00,55.6,52.7,29.75,South,180,0.0,0.0,90,0.00,,,0.00,meteohub,2013-05-22 10:32:00,
2013-05-22 05:37:00,55.6,52.7,29.75,SSW,203,0.0,0.0,90,0.00,,,0.00,meteohub,2013-05-22 10:37:00,
2013-05-22 05:42:00,55.6,53.1,29.75,SSW,203,2.0,0.0,91,0.00,,,0.00,meteohub,2013-05-22 10:42:00,
2013-05-22 05:47:00,55.6,53.1,29.75,SSW,203,2.0,2.0,91,0.00,,,0.00,meteohub,2013-05-22 10:47:00,
2013-05-22 05:52:00,55.4,52.9,29.75,SSW,203,3.0,3.0,91,0.00,,,0.00,meteohub,2013-05-22 10:52:00,
2013-05-22 05:57:00,55.6,53.1,29.76,WSW,248,1.0,3.0,91,0.00,,,0.00,meteohub,2013-05-22 10:57:00,
2013-05-22 06:02:00,55.6,53.1,29.76,South,180,2.0,3.0,91,0.00,,,0.00,meteohub,2013-05-22 11:02:00,
2013-05-22 06:07:00,55.6,53.1,29.76,SW,225,4.0,4.0,91,0.00,,,0.00,meteohub,2013-05-22 11:07:00,
2013-05-22 06:12:00,55.6,53.1,29.76,South,180,2.0,4.0,91,0.00,,,0.00,meteohub,2013-05-22 11:12:00,
2013-05-22 06:17:00,55.6,53.1,29.76,WSW,248,2.0,4.0,91,0.00,,,0.00,meteohub,2013-05-22 11:17:00,
2013-05-22 06:22:00,55.9,53.4,29.76,South,180,3.0,4.0,91,0.00,,,0.00,meteohub,2013-05-22 11:22:00,
2013-05-22 06:27:00,55.8,53.2,29.76,South,180,3.0,3.0,91,0.00,,,0.00,meteohub,2013-05-22 11:27:00,
2013-05-22 06:32:00,55.8,53.2,29.76,SW,225,2.0,3.0,91,0.00,,,0.00,meteohub,2013-05-22 11:32:00,
2013-05-22 06:37:00,55.9,53.4,29.76,SSW,203,4.0,4.0,91,0.00,,,0.00,meteohub,2013-05-22 11:37:00,
2013-05-22 06:42:00,56.1,53.6,29.76,SSW,203,4.0,4.0,91,0.00,,,0.00,meteohub,2013-05-22 11:42:00,
2013-05-22 06:47:00,56.3,53.8,29.76,WSW,248,3.0,4.0,91,0.00,,,0.00,meteohub,2013-05-22 11:47:00,
2013-05-22 06:52:00,56.3,53.8,29.76,South,180,0.0,4.0,91,0.00,,,0.00,meteohub,2013-05-22 11:52:00,
2013-05-22 06:57:00,56.3,53.8,29.75,SSW,203,2.0,4.0,91,0.00,,,0.00,meteohub,2013-05-22 11:57:00,
2013-05-22 07:02:00,56.5,54.0,29.75,South,180,4.0,4.0,91,0.00,,,0.00,meteohub,2013-05-22 12:02:00,
2013-05-22 07:08:00,56.5,54.0,29.75,East,90,4.0,4.0,91,0.00,,,0.00,meteohub,2013-05-22 12:08:00,
2013-05-22 07:13:00,56.7,54.3,29.75,SW,225,4.0,4.0,92,0.00,,,0.00,meteohub,2013-05-22 12:13:00,
2013-05-22 07:18:00,57.0,54.7,29.75,SSW,203,3.0,5.0,92,0.00,,,0.00,meteohub,2013-05-22 12:18:00,
2013-05-22 07:23:00,57.0,54.7,29.75,SW,225,4.0,5.0,92,0.00,,,0.00,meteohub,2013-05-22 12:23:00,
2013-05-22 07:28:00,57.0,54.7,29.75,SW,225,3.0,5.0,92,0.00,,,0.00,meteohub,2013-05-22 12:28:00,
2013-05-22 07:33:00,57.0,54.7,29.75,South,180,4.0,6.0,92,0.00,,,0.00,meteohub,2013-05-22 12:33:00,
2013-05-22 07:38:00,57.0,54.7,29.76,WSW,248,3.0,6.0,92,0.00,,,0.00,meteohub,2013-05-22 12:38:00,
2013-05-22 07:43:00,57.0,54.7,29.76,WSW,248,3.0,4.0,92,0.00,,,0.00,meteohub,2013-05-22 12:43:00,
2013-05-22 07:48:00,57.4,55.0,29.76,SW,225,6.0,6.0,92,0.00,,,0.00,meteohub,2013-05-22 12:48:00,
2013-05-22 07:53:00,57.7,55.4,29.76,South,180,7.0,7.0,92,0.00,,,0.00,meteohub,2013-05-22 12:53:00,
2013-05-22 07:58:00,57.9,55.6,29.76,West,270,7.0,7.0,92,0.00,,,0.00,meteohub,2013-05-22 12:58:00,
2013-05-22 08:03:00,58.5,56.1,29.76,West,270,4.0,8.0,92,0.00,,,0.00,meteohub,2013-05-22 13:03:00,
2013-05-22 08:08:00,59.2,56.8,29.75,WSW,248,5.0,8.0,92,0.00,,,0.00,meteohub,2013-05-22 13:08:00,
2013-05-22 08:13:00,59.9,57.2,29.75,NW,315,12.0,12.0,91,0.00,,,0.00,meteohub,2013-05-22 13:13:00,
2013-05-22 08:18:00,60.1,57.2,29.75,SW,225,13.0,13.0,90,0.00,,,0.00,meteohub,2013-05-22 13:18:00,
2013-05-22 08:23:00,60.8,57.6,29.75,South,180,7.0,12.0,89,0.00,,,0.00,meteohub,2013-05-22 13:23:00,
2013-05-22 08:28:00,61.0,57.4,29.75,West,270,3.0,13.0,88,0.00,,,0.00,meteohub,2013-05-22 13:28:00,
2013-05-22 08:33:00,61.3,57.7,29.75,WSW,248,8.0,13.0,88,0.00,,,0.00,meteohub,2013-05-22 13:33:00,
2013-05-22 08:38:00,61.5,57.6,29.75,SW,225,10.0,10.0,87,0.00,,,0.00,meteohub,2013-05-22 13:38:00,
2013-05-22 08:43:00,61.7,57.4,29.75,NW,315,12.0,12.0,86,0.00,,,0.00,meteohub,2013-05-22 13:43:00,
2013-05-22 08:48:00,62.2,57.9,29.75,SW,225,14.0,14.0,86,0.00,,,0.00,meteohub,2013-05-22 13:48:00,
2013-05-22 08:53:00,62.4,58.1,29.75,West,270,10.0,14.0,86,0.00,,,0.00,meteohub,2013-05-22 13:53:00,
2013-05-22 08:58:00,62.8,58.3,29.76,WSW,248,6.0,14.0,85,0.00,,,0.00,meteohub,2013-05-22 13:58:00,
2013-05-22 09:03:00,63.0,58.5,29.76,South,180,6.0,14.0,85,0.00,,,0.00,meteohub,2013-05-22 14:03:00,
2013-05-22 09:08:00,63.5,58.6,29.75,SW,225,9.0,10.0,84,0.00,,,0.00,meteohub,2013-05-22 14:08:00,
2013-05-22 09:13:00,63.5,58.6,29.75,WSW,248,6.0,9.0,84,0.00,,,0.00,meteohub,2013-05-22 14:13:00,
2013-05-22 09:18:00,63.7,58.5,29.75,NW,315,6.0,10.0,83,0.00,,,0.00,meteohub,2013-05-22 14:18:00,
2013-05-22 09:23:00,64.0,58.8,29.75,WSW,248,6.0,10.0,83,0.00,,,0.00,meteohub,2013-05-22 14:23:00,
2013-05-22 09:28:00,64.4,59.2,29.75,WSW,248,11.0,11.0,83,0.00,,,0.00,meteohub,2013-05-22 14:28:00,
2013-05-22 09:34:00,64.4,59.2,29.75,NW,315,5.0,8.0,83,0.00,,,0.00,meteohub,2013-05-22 14:34:00,
2013-05-22 09:39:00,64.9,59.4,29.75,SW,225,5.0,11.0,82,0.00,,,0.00,meteohub,2013-05-22 14:39:00,
2013-05-22 09:44:00,64.9,59.4,29.75,SW,225,9.0,12.0,82,0.00,,,0.00,meteohub,2013-05-22 14:44:00,
2013-05-22 09:49:00,64.9,59.0,29.75,SSW,203,8.0,12.0,81,0.00,,,0.00,meteohub,2013-05-22 14:49:00,
2013-05-22 09:54:00,64.9,59.0,29.75,WSW,248,5.0,12.0,81,0.00,,,0.00,meteohub,2013-05-22 14:54:00,
2013-05-22 09:59:00,64.9,59.0,29.76,WNW,293,6.0,9.0,81,0.00,,,0.00,meteohub,2013-05-22 14:59:00,
2013-05-22 10:04:00,65.3,59.7,29.76,North,0,5.0,8.0,82,0.00,,,0.00,meteohub,2013-05-22 15:04:00,
2013-05-22 10:09:00,65.5,59.9,29.76,SSW,203,6.0,7.0,82,0.00,,,0.00,meteohub,2013-05-22 15:09:00,
2013-05-22 10:14:00,65.7,59.7,29.76,West,270,6.0,7.0,81,0.00,,,0.00,meteohub,2013-05-22 15:14:00,
2013-05-22 10:19:00,65.8,59.5,29.76,West,270,8.0,8.0,80,0.00,,,0.00,meteohub,2013-05-22 15:19:00,
2013-05-22 10:24:00,65.8,59.5,29.76,WSW,248,8.0,8.0,80,0.00,,,0.00,meteohub,2013-05-22 15:24:00,
2013-05-22 10:29:00,66.0,59.7,29.76,SW,225,12.0,12.0,80,0.00,,,0.00,meteohub,2013-05-22 15:29:00,
2013-05-22 10:34:00,65.8,59.5,29.76,WSW,248,5.0,8.0,80,0.00,,,0.00,meteohub,2013-05-22 15:34:00,
2013-05-22 10:39:00,66.0,59.4,29.77,WSW,248,5.0,12.0,79,0.00,,,0.00,meteohub,2013-05-22 15:39:00,
2013-05-22 10:44:00,66.2,59.2,29.77,South,180,7.0,12.0,78,0.00,,,0.00,meteohub,2013-05-22 15:44:00,
2013-05-22 10:49:00,66.4,59.7,29.77,SW,225,6.0,12.0,79,0.00,,,0.00,meteohub,2013-05-22 15:49:00,
2013-05-22 10:54:00,66.4,59.7,29.77,WNW,293,10.0,10.0,79,0.00,,,0.00,meteohub,2013-05-22 15:54:00,
2013-05-22 10:59:00,66.4,59.4,29.77,WSW,248,6.0,10.0,78,0.00,,,0.00,meteohub,2013-05-22 15:59:00,
2013-05-22 11:04:00,66.7,59.7,29.77,South,180,5.0,10.0,78,0.00,,,0.00,meteohub,2013-05-22 16:04:00,
2013-05-22 11:09:00,66.9,59.9,29.77,NW,315,7.0,10.0,78,0.00,,,0.00,meteohub,2013-05-22 16:09:00,
2013-05-22 11:14:00,66.9,59.2,29.77,West,270,10.0,10.0,76,0.00,,,0.00,meteohub,2013-05-22 16:14:00,
2013-05-22 11:19:00,67.1,59.7,29.78,NW,315,7.0,11.0,77,0.00,,,0.00,meteohub,2013-05-22 16:19:00,
2013-05-22 11:24:00,67.3,59.0,29.78,WNW,293,8.0,11.0,75,0.00,,,0.00,meteohub,2013-05-22 16:24:00,
2013-05-22 11:29:00,67.5,59.2,29.78,NW,315,7.0,11.0,75,0.00,,,0.00,meteohub,2013-05-22 16:29:00,
2013-05-22 11:34:00,67.6,59.0,29.78,West,270,9.0,14.0,74,0.00,,,0.00,meteohub,2013-05-22 16:34:00,
2013-05-22 11:39:00,67.6,58.6,29.79,East,90,9.0,14.0,73,0.00,,,0.00,meteohub,2013-05-22 16:39:00,
2013-05-22 11:44:00,68.0,59.0,29.79,South,180,14.0,14.0,73,0.00,,,0.00,meteohub,2013-05-22 16:44:00,
2013-05-22 11:49:00,68.2,59.2,29.79,West,270,8.0,10.0,73,0.00,,,0.00,meteohub,2013-05-22 16:49:00,
2013-05-22 11:54:00,68.5,58.8,29.78,South,180,12.0,14.0,71,0.00,,,0.00,meteohub,2013-05-22 16:54:00,
2013-05-22 11:59:00,68.9,59.5,29.80,SW,225,6.0,14.0,72,0.00,,,0.00,meteohub,2013-05-22 16:59:00,
2013-05-22 12:04:00,68.7,59.4,29.80,SSW,203,11.0,13.0,72,0.00,,,0.00,meteohub,2013-05-22 17:04:00,
2013-05-22 12:09:00,68.9,59.2,29.80,SW,225,7.0,12.0,71,0.00,,,0.00,meteohub,2013-05-22 17:09:00,
2013-05-22 12:14:00,68.9,58.6,29.80,NW,315,11.0,11.0,70,0.00,,,0.00,meteohub,2013-05-22 17:14:00,
2013-05-22 12:19:00,69.1,59.4,29.81,West,270,5.0,11.0,71,0.00,,,0.00,meteohub,2013-05-22 17:19:00,
2013-05-22 12:24:00,69.3,59.5,29.81,WNW,293,6.0,11.0,71,0.00,,,0.00,meteohub,2013-05-22 17:24:00,
2013-05-22 12:30:00,69.1,58.5,29.81,West,270,4.0,11.0,69,0.00,,,0.00,meteohub,2013-05-22 17:30:00,
2013-05-22 12:34:00,69.3,59.0,29.81,WSW,248,10.0,11.0,70,0.00,,,0.00,meteohub,2013-05-22 17:34:00,
2013-05-22 12:39:00,69.6,59.0,29.82,WNW,293,9.0,13.0,69,0.00,,,0.00,meteohub,2013-05-22 17:39:00,
2013-05-22 12:45:00,69.8,59.5,29.82,NW,315,7.0,13.0,70,0.00,,,0.00,meteohub,2013-05-22 17:45:00,
2013-05-22 12:50:00,69.4,58.5,29.82,NW,315,8.0,13.0,68,0.00,,,0.00,meteohub,2013-05-22 17:50:00,
2013-05-22 12:55:00,69.4,59.2,29.82,WNW,293,6.0,13.0,70,0.00,,,0.00,meteohub,2013-05-22 17:55:00,
2013-05-22 13:00:00,69.6,59.4,29.81,WSW,248,7.0,13.0,70,0.00,,,0.00,meteohub,2013-05-22 18:00:00,
2013-05-22 13:05:00,69.6,59.4,29.81,SW,225,12.0,13.0,70,0.00,,,0.00,meteohub,2013-05-22 18:05:00,
2013-05-22 13:10:00,69.4,59.2,29.81,West,270,5.0,12.0,70,0.00,,,0.00,meteohub,2013-05-22 18:10:00,
2013-05-22 13:15:00,69.4,58.8,29.81,South,180,3.0,12.0,69,0.00,,,0.00,meteohub,2013-05-22 18:15:00,
2013-05-22 13:20:00,69.3,58.6,29.80,NW,315,5.0,12.0,69,0.00,,,0.00,meteohub,2013-05-22 18:20:00,
2013-05-22 13:25:00,69.3,59.0,29.80,West,270,6.0,13.0,70,0.00,,,0.00,meteohub,2013-05-22 18:25:00,
2013-05-22 13:30:00,69.3,59.0,29.80,WSW,248,6.0,13.0,70,0.00,,,0.00,meteohub,2013-05-22 18:30:00,
2013-05-22 13:35:00,69.1,58.8,29.80,WNW,293,9.0,9.0,70,0.00,,,0.00,meteohub,2013-05-22 18:35:00,
2013-05-22 13:40:00,69.3,58.6,29.82,South,180,8.0,9.0,69,0.00,,,0.00,meteohub,2013-05-22 18:40:00,
2013-05-22 13:45:00,69.3,59.5,29.82,WNW,293,5.0,10.0,71,0.00,,,0.00,meteohub,2013-05-22 18:45:00,
2013-05-22 13:50:00,69.4,59.5,29.82,NW,315,6.0,10.0,71,0.00,,,0.00,meteohub,2013-05-22 18:50:00,
2013-05-22 13:55:00,69.4,59.2,29.82,NW,315,5.0,10.0,70,0.00,,,0.00,meteohub,2013-05-22 18:55:00,
2013-05-22 14:00:00,69.4,58.8,29.82,SW,225,4.0,8.0,69,0.00,,,0.00,meteohub,2013-05-22 19:00:00,
2013-05-22 14:05:00,69.6,59.4,29.82,West,270,7.0,11.0,70,0.00,,,0.00,meteohub,2013-05-22 19:05:00,
2013-05-22 14:10:00,70.2,59.5,29.82,WSW,248,13.0,13.0,69,0.00,,,0.00,meteohub,2013-05-22 19:10:00,
2013-05-22 14:15:00,70.3,59.4,29.82,NW,315,6.0,13.0,68,0.00,,,0.00,meteohub,2013-05-22 19:15:00,
2013-05-22 14:20:00,70.2,59.2,29.81,SW,225,10.0,13.0,68,0.00,,,0.00,meteohub,2013-05-22 19:20:00,
2013-05-22 14:25:00,70.0,59.4,29.81,West,270,6.0,13.0,69,0.00,,,0.00,meteohub,2013-05-22 19:25:00,
2013-05-22 14:30:00,70.0,59.0,29.81,WNW,293,4.0,10.0,68,0.00,,,0.00,meteohub,2013-05-22 19:30:00,
2013-05-22 14:35:00,69.4,58.5,29.81,NW,315,9.0,10.0,68,0.00,,,0.00,meteohub,2013-05-22 19:35:00,
2013-05-22 14:40:00,69.6,59.0,29.80,West,270,8.0,10.0,69,0.00,,,0.00,meteohub,2013-05-22 19:40:00,
2013-05-22 14:45:00,70.2,59.5,29.79,West,270,8.0,9.0,69,0.00,,,0.00,meteohub,2013-05-22 19:45:00,
2013-05-22 14:50:00,70.5,59.4,29.79,NW,315,11.0,11.0,68,0.00,,,0.00,meteohub,2013-05-22 19:50:00,
2013-05-22 14:55:00,70.9,59.7,29.79,West,270,11.0,11.0,68,0.00,,,0.00,meteohub,2013-05-22 19:55:00,
2013-05-22 15:00:00,71.2,59.7,29.82,West,270,9.0,12.0,67,0.00,,,0.00,meteohub,2013-05-22 20:00:00,
2013-05-22 15:05:00,71.1,59.5,29.82,West,270,5.0,12.0,67,0.00,,,0.00,meteohub,2013-05-22 20:05:00,
2013-05-22 15:10:00,70.5,59.0,29.82,West,270,9.0,12.0,67,0.00,,,0.00,meteohub,2013-05-22 20:10:00,
2013-05-22 15:15:00,70.2,58.6,29.83,NW,315,9.0,11.0,67,0.00,,,0.00,meteohub,2013-05-22 20:15:00,
2013-05-22 15:20:00,70.7,59.2,29.80,SSE,158,9.0,11.0,67,0.00,,,0.00,meteohub,2013-05-22 20:20:00,
2013-05-22 15:25:00,71.1,59.9,29.80,WSW,248,12.0,12.0,68,0.00,,,0.00,meteohub,2013-05-22 20:25:00,
2013-05-22 15:30:00,71.2,59.7,29.80,WSW,248,6.0,12.0,67,0.00,,,0.00,meteohub,2013-05-22 20:30:00,
2013-05-22 15:35:00,71.4,59.5,29.80,West,270,7.0,12.0,66,0.00,,,0.00,meteohub,2013-05-22 20:35:00,
2013-05-22 15:40:00,71.4,59.5,29.79,NW,315,8.0,12.0,66,0.00,,,0.00,meteohub,2013-05-22 20:40:00,
2013-05-22 15:45:00,71.4,59.0,29.79,West,270,3.0,9.0,65,0.00,,,0.00,meteohub,2013-05-22 20:45:00,
2013-05-22 15:50:00,71.8,59.7,29.79,WSW,248,10.0,10.0,66,0.00,,,0.00,meteohub,2013-05-22 20:50:00,
2013-05-22 15:55:00,71.8,59.4,29.79,West,270,11.0,11.0,65,0.00,,,0.00,meteohub,2013-05-22 20:55:00,
2013-05-22 16:00:00,71.8,59.0,29.81,SW,225,8.0,11.0,64,0.00,,,0.00,meteohub,2013-05-22 21:00:00,
2013-05-22 16:05:00,71.4,59.0,29.81,SW,225,9.0,11.0,65,0.00,,,0.00,meteohub,2013-05-22 21:05:00,
2013-05-22 16:10:00,71.6,59.2,29.81,West,270,11.0,11.0,65,0.00,,,0.00,meteohub,2013-05-22 21:10:00,
2013-05-22 16:16:00,71.6,59.7,29.81,NW,315,6.0,11.0,66,0.00,,,0.00,meteohub,2013-05-22 21:16:00,
2013-05-22 16:21:00,71.8,59.7,29.80,South,180,8.0,11.0,66,0.00,,,0.00,meteohub,2013-05-22 21:21:00,
2013-05-22 16:26:00,71.6,59.7,29.80,WNW,293,7.0,8.0,66,0.00,,,0.00,meteohub,2013-05-22 21:26:00,
2013-05-22 16:31:00,72.0,59.9,29.80,NW,315,5.0,8.0,66,0.00,,,0.00,meteohub,2013-05-22 21:31:00,
2013-05-22 16:36:00,72.0,59.5,29.80,WNW,293,7.0,9.0,65,0.00,,,0.00,meteohub,2013-05-22 21:36:00,
2013-05-22 16:41:00,72.1,59.7,29.78,WNW,293,4.0,13.0,65,0.00,,,0.00,meteohub,2013-05-22 21:41:00,
2013-05-22 16:46:00,72.5,60.4,29.78,SW,225,5.0,13.0,66,0.00,,,0.00,meteohub,2013-05-22 21:46:00,
2013-05-22 16:51:00,72.5,60.4,29.78,North,0,5.0,7.0,66,0.00,,,0.00,meteohub,2013-05-22 21:51:00,
2013-05-22 16:56:00,72.3,60.3,29.78,WSW,248,9.0,9.0,66,0.00,,,0.00,meteohub,2013-05-22 21:56:00,
2013-05-22 17:01:00,72.5,59.5,29.77,NW,315,10.0,10.0,64,0.00,,,0.00,meteohub,2013-05-22 22:01:00,
2013-05-22 17:06:00,72.1,59.4,29.77,West,270,6.0,10.0,64,0.00,,,0.00,meteohub,2013-05-22 22:06:00,
2013-05-22 17:11:00,72.1,59.7,29.77,NW,315,7.0,10.0,65,0.00,,,0.00,meteohub,2013-05-22 22:11:00,
2013-05-22 17:16:00,72.3,59.9,29.77,NW,315,8.0,10.0,65,0.00,,,0.00,meteohub,2013-05-22 22:16:00,
2013-05-22 17:21:00,72.0,59.2,29.78,SW,225,4.0,10.0,64,0.00,,,0.00,meteohub,2013-05-22 22:21:00,
2013-05-22 17:26:00,72.1,59.4,29.78,WNW,293,6.0,8.0,64,0.00,,,0.00,meteohub,2013-05-22 22:26:00,
2013-05-22 17:31:00,72.0,59.2,29.78,South,180,4.0,8.0,64,0.00,,,0.00,meteohub,2013-05-22 22:31:00,
2013-05-22 17:36:00,71.6,59.2,29.78,NW,315,5.0,11.0,65,0.00,,,0.00,meteohub,2013-05-22 22:36:00,
2013-05-22 17:41:00,72.0,59.2,29.79,WSW,248,10.0,11.0,64,0.00,,,0.00,meteohub,2013-05-22 22:41:00,
2013-05-22 17:46:00,72.1,59.7,29.78,WSW,248,6.0,10.0,65,0.00,,,0.00,meteohub,2013-05-22 22:46:00,
2013-05-22 17:51:00,72.1,59.4,29.78,NW,315,4.0,10.0,64,0.00,,,0.00,meteohub,2013-05-22 22:51:00,
2013-05-22 17:56:00,72.0,59.5,29.79,WSW,248,4.0,10.0,65,0.00,,,0.00,meteohub,2013-05-22 22:56:00,
2013-05-22 18:01:00,71.6,58.8,29.78,WSW,248,7.0,8.0,64,0.00,,,0.00,meteohub,2013-05-22 23:01:00,
2013-05-22 18:06:00,71.4,58.6,29.78,WSW,248,5.0,7.0,64,0.00,,,0.00,meteohub,2013-05-22 23:06:00,
2013-05-22 18:11:00,71.4,59.0,29.78,West,270,3.0,7.0,65,0.00,,,0.00,meteohub,2013-05-22 23:11:00,
2013-05-22 18:16:00,71.6,59.7,29.78,West,270,8.0,8.0,66,0.00,,,0.00,meteohub,2013-05-22 23:16:00,
2013-05-22 18:21:00,71.4,59.0,29.79,West,270,7.0,8.0,65,0.00,,,0.00,meteohub,2013-05-22 23:21:00,
2013-05-22 18:26:00,71.8,59.7,29.79,West,270,4.0,8.0,66,0.00,,,0.00,meteohub,2013-05-22 23:26:00,
2013-05-22 18:31:00,71.6,59.2,29.79,South,180,4.0,8.0,65,0.00,,,0.00,meteohub,2013-05-22 23:31:00,
2013-05-22 18:36:00,71.8,59.0,29.79,SW,225,6.0,9.0,64,0.00,,,0.00,meteohub,2013-05-22 23:36:00,
2013-05-22 18:41:00,71.8,59.4,29.78,NW,315,7.0,9.0,65,0.00,,,0.00,meteohub,2013-05-22 23:41:00,
2013-05-22 18:46:00,71.6,58.8,29.78,NW,315,8.0,9.0,64,0.00,,,0.00,meteohub,2013-05-22 23:46:00,
2013-05-22 18:51:00,71.6,58.8,29.78,WNW,293,4.0,8.0,64,0.00,,,0.00,meteohub,2013-05-22 23:51:00,
2013-05-22 18:56:00,71.6,58.8,29.78,WNW,293,4.0,8.0,64,0.00,,,0.00,meteohub,2013-05-22 23:56:00,
2013-05-22 19:01:00,71.6,59.2,29.81,NW,315,2.0,8.0,65,0.00,,,0.00,meteohub,2013-05-23 00:01:00,
2013-05-22 19:06:00,71.2,58.5,29.81,WSW,248,7.0,7.0,64,0.00,,,0.00,meteohub,2013-05-23 00:06:00,
2013-05-22 19:11:00,70.9,58.5,29.81,WSW,248,4.0,7.0,65,0.00,,,0.00,meteohub,2013-05-23 00:11:00,
2013-05-22 19:16:00,70.9,58.5,29.81,SW,225,5.0,7.0,65,0.00,,,0.00,meteohub,2013-05-23 00:16:00,
2013-05-22 19:21:00,70.9,58.5,29.84,NW,315,3.0,7.0,65,0.00,,,0.00,meteohub,2013-05-23 00:21:00,
2013-05-22 19:26:00,70.9,59.0,29.84,SW,225,3.0,6.0,66,0.00,,,0.00,meteohub,2013-05-23 00:26:00,
2013-05-22 19:31:00,71.1,59.2,29.84,WNW,293,3.0,6.0,66,0.00,,,0.00,meteohub,2013-05-23 00:31:00,
2013-05-22 19:36:00,70.7,58.8,29.84,WNW,293,4.0,6.0,66,0.00,,,0.00,meteohub,2013-05-23 00:36:00,
2013-05-22 19:41:00,70.5,58.6,29.86,WSW,248,3.0,4.0,66,0.00,,,0.00,meteohub,2013-05-23 00:41:00,
2013-05-22 19:46:00,70.2,58.3,29.86,SW,225,2.0,4.0,66,0.00,,,0.00,meteohub,2013-05-23 00:46:00,
2013-05-22 19:51:00,70.3,58.5,29.86,West,270,0.0,4.0,66,0.00,,,0.00,meteohub,2013-05-23 00:51:00,
2013-05-22 19:56:00,70.0,58.5,29.86,WSW,248,3.0,4.0,67,0.00,,,0.00,meteohub,2013-05-23 00:56:00,
2013-05-22 20:01:00,69.6,58.1,29.87,NW,315,1.0,3.0,67,0.00,,,0.00,meteohub,2013-05-23 01:01:00,
2013-05-22 20:06:00,69.3,57.9,29.87,WSW,248,3.0,3.0,67,0.00,,,0.00,meteohub,2013-05-23 01:06:00,
2013-05-22 20:11:00,69.1,58.1,29.87,WSW,248,0.0,3.0,68,0.00,,,0.00,meteohub,2013-05-23 01:11:00,
2013-05-22 20:16:00,68.7,57.7,29.87,SW,225,0.0,3.0,68,0.00,,,0.00,meteohub,2013-05-23 01:16:00,
2013-05-22 20:21:00,68.0,57.4,29.87,SW,225,0.0,3.0,69,0.00,,,0.00,meteohub,2013-05-23 01:21:00,
2013-05-22 20:26:00,67.5,57.4,29.87,SW,225,0.0,0.0,70,0.00,,,0.00,meteohub,2013-05-23 01:26:00,
2013-05-22 20:32:00,67.1,57.4,29.87,SW,225,0.0,0.0,71,0.00,,,0.00,meteohub,2013-05-23 01:32:00,
2013-05-22 20:37:00,66.4,57.0,29.88,SW,225,0.0,0.0,72,0.00,,,0.00,meteohub,2013-05-23 01:37:00,
2013-05-22 20:42:00,65.8,56.5,29.86,SW,225,0.0,0.0,72,0.00,,,0.00,meteohub,2013-05-23 01:42:00,
2013-05-22 20:47:00,65.1,56.3,29.87,SW,225,0.0,0.0,73,0.00,,,0.00,meteohub,2013-05-23 01:47:00,
2013-05-22 20:52:00,64.8,56.3,29.87,SW,225,0.0,0.0,74,0.00,,,0.00,meteohub,2013-05-23 01:52:00,
2013-05-22 20:57:00,64.4,55.9,29.87,SW,225,0.0,0.0,74,0.00,,,0.00,meteohub,2013-05-23 01:57:00,
2013-05-22 21:02:00,64.2,56.1,29.86,SW,225,0.0,0.0,75,0.00,,,0.00,meteohub,2013-05-23 02:02:00,
2013-05-22 21:07:00,63.9,56.1,29.86,SW,225,0.0,0.0,76,0.00,,,0.00,meteohub,2013-05-23 02:07:00,
2013-05-22 21:12:00,63.3,55.6,29.86,SW,225,0.0,0.0,76,0.00,,,0.00,meteohub,2013-05-23 02:12:00,
2013-05-22 21:17:00,63.0,55.2,29.86,SW,225,0.0,0.0,76,0.00,,,0.00,meteohub,2013-05-23 02:17:00,
2013-05-22 21:22:00,62.8,55.4,29.86,SW,225,0.0,0.0,77,0.00,,,0.00,meteohub,2013-05-23 02:22:00,
2013-05-22 21:27:00,62.4,55.4,29.86,SW,225,0.0,0.0,78,0.00,,,0.00,meteohub,2013-05-23 02:27:00,
2013-05-22 21:32:00,62.1,55.0,29.86,SW,225,0.0,0.0,78,0.00,,,0.00,meteohub,2013-05-23 02:32:00,
2013-05-22 21:37:00,61.9,54.9,29.86,SW,225,0.0,0.0,78,0.00,,,0.00,meteohub,2013-05-23 02:37:00,
2013-05-22 21:42:00,61.5,54.9,29.87,SW,225,0.0,0.0,79,0.00,,,0.00,meteohub,2013-05-23 02:42:00,
2013-05-22 21:47:00,61.2,54.7,29.87,SW,225,0.0,0.0,79,0.00,,,0.00,meteohub,2013-05-23 02:47:00,
2013-05-22 21:52:00,61.0,54.7,29.87,SW,225,0.0,0.0,80,0.00,,,0.00,meteohub,2013-05-23 02:52:00,
2013-05-22 21:57:00,61.0,54.7,29.87,SW,225,0.0,0.0,80,0.00,,,0.00,meteohub,2013-05-23 02:57:00,
2013-05-22 22:02:00,60.6,54.7,29.89,SW,225,0.0,0.0,81,0.00,,,0.00,meteohub,2013-05-23 03:02:00,
2013-05-22 22:07:00,60.4,54.5,29.89,SW,225,0.0,0.0,81,0.00,,,0.00,meteohub,2013-05-23 03:07:00,
2013-05-22 22:12:00,60.3,54.3,29.89,SW,225,0.0,0.0,81,0.00,,,0.00,meteohub,2013-05-23 03:12:00,
2013-05-22 22:17:00,60.1,54.5,29.90,SW,225,0.0,0.0,82,0.00,,,0.00,meteohub,2013-05-23 03:17:00,
2013-05-22 22:22:00,59.9,54.3,29.90,SW,225,0.0,0.0,82,0.00,,,0.00,meteohub,2013-05-23 03:22:00,
2013-05-22 22:27:00,59.9,54.3,29.90,SW,225,0.0,0.0,82,0.00,,,0.00,meteohub,2013-05-23 03:27:00,
2013-05-22 22:32:00,59.5,54.0,29.90,SW,225,0.0,0.0,82,0.00,,,0.00,meteohub,2013-05-23 03:32:00,
2013-05-22 22:37:00,59.5,54.3,29.90,SW,225,0.0,0.0,83,0.00,,,0.00,meteohub,2013-05-23 03:37:00,
2013-05-22 22:42:00,59.5,54.3,29.91,SW,225,0.0,0.0,83,0.00,,,0.00,meteohub,2013-05-23 03:42:00,
2013-05-22 22:47:00,59.2,54.0,29.91,SW,225,0.0,0.0,83,0.00,,,0.00,meteohub,2013-05-23 03:47:00,
2013-05-22 22:52:00,59.2,54.3,29.91,SW,225,0.0,0.0,84,0.00,,,0.00,meteohub,2013-05-23 03:52:00,
2013-05-22 22:57:00,58.8,54.0,29.91,SW,225,0.0,0.0,84,0.00,,,0.00,meteohub,2013-05-23 03:57:00,
2013-05-22 23:01:00,58.6,53.8,29.91,SW,225,0.0,0.0,84,0.00,,,0.00,meteohub,2013-05-23 04:01:00,
2013-05-22 23:06:00,58.6,53.8,29.91,SW,225,0.0,0.0,84,0.00,,,0.00,meteohub,2013-05-23 04:06:00,
2013-05-22 23:11:00,58.6,53.8,29.91,SW,225,0.0,0.0,84,0.00,,,0.00,meteohub,2013-05-23 04:11:00,
2013-05-22 23:16:00,58.6,54.1,29.91,SW,225,0.0,0.0,85,0.00,,,0.00,meteohub,2013-05-23 04:16:00,
2013-05-22 23:21:00,58.5,54.0,29.91,SW,225,0.0,0.0,85,0.00,,,0.00,meteohub,2013-05-23 04:21:00,
2013-05-22 23:26:00,58.5,54.0,29.91,SW,225,0.0,0.0,85,0.00,,,0.00,meteohub,2013-05-23 04:26:00,
2013-05-22 23:31:00,58.5,54.0,29.91,SW,225,0.0,0.0,85,0.00,,,0.00,meteohub,2013-05-23 04:31:00,
2013-05-22 23:36:00,58.1,53.6,29.91,SW,225,0.0,0.0,85,0.00,,,0.00,meteohub,2013-05-23 04:36:00,
2013-05-22 23:41:00,57.9,53.4,29.91,SW,225,0.0,0.0,85,0.00,,,0.00,meteohub,2013-05-23 04:41:00,
2013-05-22 23:47:00,57.9,53.4,29.91,SW,225,0.0,0.0,85,0.00,,,0.00,meteohub,2013-05-23 04:47:00,
2013-05-22 23:52:00,57.7,53.6,29.91,SW,225,0.0,0.0,86,0.00,,,0.00,meteohub,2013-05-23 04:52:00,
2013-05-22 23:57:00,57.6,53.4,29.91,SW,225,0.0,0.0,86,0.00,,,0.00,meteohub,2013-05-23 04:57:00,